Wetbulb
67.50 65.98 62.93 61.92 50.97 41.47 36.48 40.04 45.01 44.09 44.63 47.31 49.09 47.30 45.82 46.67 45.92 40.29 54.64 58.15 61.49 64.03 65.85 69.54 70.40 68.54 66.98 65.82 65.13 65.14 64.73 64.36 63.58 63.50 64.20 64.99 65.09 65.37 66.16 66.78 67.10 67.37 67.76 68.36 68.60 69.12 69.81 69.95 70.82
63.33 64.12 60.77 56.32 46.31 34.74 35.99 42.37 42.80 45.12 47.39 47.98 49.14 48.34 47.89 47.61 52.36 53.95 53.48 57.71 57.16 62.79 64.99 65.72 69.43 68.47 67.24 66.52 65.75 65.53 65.12 64.36 63.92 63.97 64.33 64.64 65.15 65.62 65.66 66.00 67.03 67.50 67.89 68.18 68.42 68.92 69.54 70.02 70.30
64.13 64.82 56.66 50.79 41.35 35.82 36.29 42.12 44.22 46.32 48.79 46.81 46.00 49.94 51.09 50.81 55.42 53.92 55.18 57.32 55.65 61.46 64.47 64.79 69.99 69.41 68.13 67.16 66.33 65.77 65.62 64.87 64.22 64.36 64.36 64.25 64.32 64.39 65.44 65.79 66.12 67.36 67.84 68.07 68.65 69.20 69.41 69.68 70.22
63.24 59.42 55.60 45.37 36.71 39.57 42.17 43.64 46.24 46.76 47.18 47.64 48.36 49.09 53.26 56.14 55.72 55.61 56.25 56.46 53.44 60.48 63.66 66.20 70.94 69.59 68.02 67.12 66.64 65.90 65.51 65.27 64.67 64.58 64.54 64.38 64.35 64.49 64.82 65.61 65.86 66.29 67.51 68.24 68.69 69.12 69.67 69.53 70.36
59.79 53.80 46.06 41.85 39.92 42.05 44.27 46.55 46.46 46.02 46.76 46.51 49.18 49.44 50.40 55.95 56.81 55.96 55.06 55.22 52.89 52.85 60.59 65.22 70.77 68.99 67.99 67.14 66.46 66.00 65.00 65.05 65.05 64.78 64.56 64.19 64.31 64.18 64.65 65.28 65.98 65.86 67.50 68.18 68.54 69.01 69.60 69.60 70.30
53.16 51.81 42.12 39.69 39.92 44.00 44.82 46.76 47.46 46.59 46.74 47.09 49.47 49.55 49.30 54.89 54.58 54.39 53.54 53.28 56.55 56.06 54.95 55.97 66.89 69.63 68.20 66.54 66.43 66.73 66.70 65.52 64.64 64.55 64.45 64.14 64.04 64.13 64.21 65.06 65.92 65.63 67.39 68.12 68.24 68.86 70.01 70.43 70.82
52.10 48.86 44.46 43.10 41.64 42.72 45.65 46.75 46.30 45.83 46.29 46.54 49.12 47.50 49.18 51.41 53.14 52.87 51.95 52.03 52.55 52.49 52.75 53.44 53.61 58.03 62.09 64.21 65.97 64.99 65.63 64.49 63.86 63.78 64.09 63.74 63.72 63.88 64.00 64.81 65.50 66.05 66.98 67.94 67.95 68.70 69.92 70.53 70.67
54.61 48.66 41.94 41.19 41.37 41.02 46.17 46.90 47.20 47.77 47.89 53.24 53.27 46.74 44.11 49.39 52.22 52.06 51.04 50.18 50.22 50.97 52.63 52.22 52.96 56.04 56.40 58.58 63.22 61.99 62.08 61.70 62.46 62.74 62.81 62.91 63.05 63.45 63.86 64.45 65.24 66.13 67.19 67.99 68.20 68.69 69.77 70.42 70.61
53.56 43.95 39.86 40.60 42.81 42.85 44.80 44.19 48.67 50.80 50.08 51.39 51.87 50.70 51.37 52.36 52.02 50.86 49.34 49.15 50.47 53.36 52.02 52.80 56.08 56.30 56.28 57.55 58.30 58.78 60.42 60.57 60.05 59.09 60.52 60.88 57.69 58.26 61.17 63.89 65.08 66.48 67.17 67.91 68.21 68.53 69.20 70.04 70.03
48.79 41.53 43.57 46.47 45.72 43.79 45.76 46.86 48.27 48.95 49.48 49.53 50.88 51.85 52.81 52.30 50.37 49.54 48.24 48.17 49.72 51.59 54.05 55.96 56.20 56.05 56.32 58.05 54.94 55.61 58.54 58.00 57.77 57.92 56.65 55.73 56.43 57.81 61.44 63.20 64.93 65.96 66.93 67.41 68.36 68.40 68.91 68.79 66.51
49.89 45.11 46.73 47.21 47.37 47.14 47.05 46.78 49.61 48.67 46.06 48.47 48.53 49.12 50.35 50.30 49.63 49.51 49.44 48.65 48.88 52.02 55.29 56.24 55.43 56.38 55.55 54.98 54.93 55.75 57.58 58.13 58.07 57.05 58.31 56.37 58.64 58.05 58.99 59.92 61.34 61.49 65.25 64.20 65.65 65.34 65.17 65.63 64.81
47.54 48.32 48.61 48.03 48.54 47.14 46.67 48.63 48.15 49.00 48.25 51.80 51.85 50.57 49.91 49.54 48.89 49.33 49.94 50.81 52.15 53.84 54.89 56.50 55.43 56.41 55.22 55.33 54.72 55.25 57.49 58.88 57.98 55.65 55.53 54.92 56.69 57.65 57.97 58.98 59.98 60.83 62.03 62.00 63.49 64.27 64.67 64.34 65.78
46.32 48.08 49.33 49.07 47.65 47.40 49.01 47.24 48.04 47.79 51.09 52.30 51.73 50.70 49.24 48.98 49.26 50.35 51.41 52.64 53.74 53.56 54.62 54.97 55.37 55.28 56.09 55.59 55.27 55.18 57.59 58.79 56.47 56.25 56.05 56.47 56.49 56.23 57.25 58.96 59.84 60.56 61.50 62.68 63.29 65.50 65.65 65.03 65.18
48.67 48.32 48.13 47.49 46.77 46.93 45.66 47.07 47.79 49.15 52.25 51.64 50.03 48.58 48.84 49.54 49.48 49.99 51.68 52.53 54.44 54.37 54.28 54.36 55.81 56.07 56.15 55.27 55.03 56.09 56.67 56.93 56.89 55.73 56.49 57.79 56.95 55.91 57.57 58.03 58.90 60.14 60.61 62.02 64.45 65.59 64.82 64.61 65.10
48.79 44.98 45.86 46.47 46.89 45.48 46.71 45.26 45.58 50.44 51.09 50.44 48.95 48.81 49.29 49.80 50.55 50.63 51.66 54.10 54.64 55.18 54.97 55.11 56.19 56.68 55.81 55.06 56.35 56.71 56.85 56.81 56.55 56.83 57.87 58.71 58.04 57.88 58.45 58.57 59.51 59.55 62.16 63.82 64.59 64.25 63.96 63.62 64.10
46.17 43.75 39.33 44.58 46.78 47.12 45.95 40.15 47.42 49.92 49.30 48.71 48.67 48.93 49.13 49.31 50.54 51.42 54.11 54.80 55.35 54.28 54.97 54.28 57.98 56.07 55.99 55.77 56.67 57.25 57.37 56.65 56.89 57.09 57.73 59.17 60.07 60.30 58.98 59.07 60.23 63.22 63.38 63.84 63.86 63.58 62.69 62.89 63.02
43.24 38.00 39.58 42.92 47.32 46.65 43.98 40.88 48.04 49.18 48.91 48.44 47.54 47.79 48.37 48.57 49.81 50.75 54.41 55.75 55.52 55.30 55.33 53.93 54.77 56.95 56.58 56.07 56.41 56.49 57.07 57.51 57.97 58.29 58.15 59.65 60.82 62.55 61.58 61.29 63.00 63.60 63.21 63.07 63.02 62.79 62.91 62.33 62.19
39.80 39.39 42.08 41.89 44.68 45.73 41.83 41.47 46.58 48.12 48.75 48.55 46.57 47.14 47.84 48.49 49.31 51.85 54.11 56.12 56.15 56.31 56.02 55.89 54.35 56.46 56.26 56.25 56.39 56.71 56.79 57.53 58.82 59.36 60.07 60.68 61.64 62.68 62.49 60.99 62.87 62.87 62.23 61.78 61.93 61.75 62.68 62.94 62.36
45.78 43.93 42.52 44.45 46.37 44.74 42.75 41.90 45.01 47.03 48.20 46.57 45.46 45.90 46.52 47.53 50.10 51.75 53.76 55.83 56.91 57.06 54.80 55.13 53.75 54.82 55.93 54.98 54.30 55.37 55.30 56.53 57.97 59.80 60.56 60.86 61.84 62.82 62.51 61.86 62.69 62.70 61.52 61.50 62.04 61.94 61.60 61.71 62.45
45.27 43.07 42.55 44.87 46.37 43.77 42.62 42.62 44.97 47.03 48.06 48.02 46.16 45.66 46.06 46.62 48.62 51.02 53.05 52.94 55.27 55.67 56.13 55.52 54.41 53.15 54.65 55.31 55.55 55.73 55.93 57.09 57.25 58.34 59.71 60.77 62.14 62.56 62.50 62.37 62.21 62.59 61.63 61.65 61.73 61.65 60.86 61.26 61.52
43.60 42.63 42.83 42.97 45.51 44.70 43.02 40.65 43.92 47.08 48.33 49.82 47.34 47.37 46.85 46.73 47.61 50.00 52.33 50.92 53.26 54.83 53.42 56.11 55.71 53.02 54.12 55.48 56.10 56.29 56.83 57.53 57.35 57.97 59.40 60.68 62.40 62.46 62.16 61.64 62.74 62.88 62.61 61.79 61.35 61.37 60.67 58.83 60.36
40.38 46.07 46.37 45.53 41.59 36.22 43.44 32.47 41.09 44.48 45.61 47.88 46.92 45.56 45.51 46.92 48.32 50.26 51.39 50.29 52.10 55.36 55.77 55.74 55.74 55.44 54.58 52.91 53.62 54.39 54.47 55.15 56.71 57.80 60.01 61.76 63.17 62.78 62.36 62.11 62.25 62.35 62.85 62.20 61.86 61.93 60.69 60.56 57.86
43.17 46.63 44.83 45.24 40.61 37.91 39.89 34.06 39.97 44.30 43.48 46.24 45.84 45.95 45.90 46.97 48.14 50.21 51.29 52.17 53.13 54.71 56.72 56.92 56.39 56.56 54.38 54.64 53.23 54.41 55.02 55.53 57.15 58.86 59.57 60.36 61.55 63.14 63.05 62.38 62.18 61.72 61.82 63.04 62.67 61.20 61.41 60.27 59.17
47.56 44.81 44.29 41.77 38.44 31.81 38.52 37.13 36.59 40.64 45.01 46.56 47.01 46.87 47.24 47.23 48.06 50.44 52.13 52.86 53.31 52.84 56.93 56.38 55.57 56.04 57.40 55.58 54.13 54.17 55.13 55.83 56.70 56.17 55.91 55.65 58.01 60.39 62.25 63.35 62.60 62.54 62.33 62.25 62.55 61.95 61.26 60.11 59.98
44.86 39.67 32.94 29.91 29.59 29.86 40.92 37.63 40.67 45.17 47.16 49.45 47.16 46.83 47.37 48.41 47.02 49.71 50.83 50.69 52.35 52.96 54.81 56.48 56.11 55.27 55.56 57.37 55.53 53.58 53.23 53.27 53.35 53.47 54.51 55.44 55.92 57.87 60.79 61.76 62.30 62.57 61.89 61.91 61.84 61.12 60.91 60.66 59.84
41.42 40.62 34.05 28.11 28.26 35.23 43.77 36.97 40.58 49.82 49.93 51.44 50.64 48.38 48.00 46.70 48.19 49.51 50.24 50.61 52.53 53.85 53.65 56.17 55.48 54.29 54.37 55.09 54.38 54.69 55.64 55.38 54.26 54.07 53.53 54.10 55.03 56.03 58.26 61.56 61.46 61.69 61.72 61.43 59.78 59.63 59.84 60.51 59.68
41.54 39.04 43.07 37.27 38.20 34.71 39.25 45.74 49.21 50.41 49.63 50.21 48.24 47.23 46.71 46.77 48.64 48.99 49.79 50.92 50.61 53.57 53.26 54.67 54.83 53.15 53.87 54.28 53.27 53.01 54.17 54.62 54.50 54.50 54.25 53.45 54.79 57.18 56.06 56.63 56.89 57.94 58.92 59.06 58.47 58.10 57.62 57.76 58.01
44.24 46.04 38.55 35.82 29.22 28.99 35.91 43.16 40.91 46.35 47.12 48.14 46.57 46.45 46.61 47.07 48.93 48.62 50.26 50.82 51.18 52.59 52.65 54.40 54.39 53.21 53.80 52.55 52.42 53.65 53.88 54.46 53.89 54.45 53.79 53.88 54.29 56.46 57.37 57.66 57.89 57.89 57.00 56.57 57.09 57.07 57.23 57.64 57.11
45.07 42.97 43.43 41.38 38.89 30.91 28.63 38.22 48.22 49.07 49.39 47.32 47.07 47.55 46.92 47.73 48.87 48.90 50.60 51.07 52.07 52.28 52.96 54.24 53.84 54.39 54.14 53.59 54.03 53.92 54.22 53.75 53.29 53.24 53.85 53.97 53.86 55.33 55.98 56.61 57.07 56.77 55.91 56.86 58.05 57.81 58.42 57.71 57.24
49.86 47.12 45.69 39.24 37.98 39.38 39.03 37.78 51.35 51.00 50.44 50.33 48.38 48.60 48.14 49.35 49.03 50.14 50.97 50.86 52.08 52.40 52.71 52.86 53.31 54.83 54.74 55.09 53.95 54.28 54.47 52.62 51.79 52.31 52.75 53.85 54.09 54.81 55.10 55.62 56.34 56.77 56.47 56.26 56.22 55.46 55.35 55.36 54.88
MSLP
1012.78 1012.62 1012.51 1012.85 1014.34 1014.77 1014.97 1014.90 1014.09 1013.72 1013.26 1012.85 1012.63 1013.00 1013.84 1014.23 1014.62 1015.65 1015.06 1014.95 1014.88 1015.03 1015.12 1015.30 1015.49 1015.63 1015.71 1015.62 1015.57 1015.56 1015.74 1015.89 1015.99 1015.96 1016.03 1015.99 1015.89 1015.79 1015.65 1015.57 1015.46 1015.44 1015.53 1015.50 1015.41 1015.36 1015.30 1015.27 1015.23
1012.72 1012.79 1012.90 1013.44 1014.58 1015.50 1015.34 1014.49 1014.12 1013.18 1012.67 1012.56 1012.89 1013.26 1013.65 1014.22 1014.32 1014.89 1015.09 1014.79 1014.60 1014.86 1015.16 1015.31 1015.26 1015.28 1015.24 1015.13 1015.14 1015.22 1015.42 1015.53 1015.60 1015.65 1015.76 1015.77 1015.68 1015.57 1015.55 1015.41 1015.35 1015.20 1015.21 1015.31 1015.20 1015.18 1015.17 1015.20 1015.18
1012.14 1012.43 1013.43 1014.10 1014.90 1015.18 1014.67 1013.91 1013.35 1012.83 1012.28 1012.39 1012.65 1012.77 1013.65 1014.40 1014.47 1014.89 1014.85 1014.40 1014.01 1014.55 1014.71 1014.90 1014.79 1014.81 1014.83 1014.83 1014.87 1014.90 1014.94 1015.01 1015.17 1015.33 1015.46 1015.51 1015.46 1015.39 1015.27 1015.18 1015.07 1015.01 1014.89 1014.97 1014.98 1015.01 1014.97 1015.08 1015.13
1012.11 1012.90 1013.64 1014.12 1014.39 1013.72 1013.37 1013.13 1012.70 1012.77 1012.47 1012.28 1012.52 1013.64 1014.15 1014.48 1014.54 1014.55 1014.33 1014.01 1013.90 1014.23 1014.22 1014.46 1014.48 1014.64 1014.71 1014.63 1014.58 1014.52 1014.52 1014.61 1014.72 1014.93 1015.08 1015.20 1015.14 1015.17 1015.05 1014.93 1014.76 1014.63 1014.62 1014.54 1014.70 1014.83 1014.83 1014.91 1015.03
1012.13 1012.93 1013.88 1014.11 1013.71 1013.28 1012.93 1012.35 1012.14 1012.38 1012.20 1012.30 1012.41 1013.84 1014.52 1014.60 1014.32 1014.26 1013.95 1013.86 1013.95 1014.33 1014.57 1014.62 1014.42 1014.47 1014.47 1014.42 1014.36 1014.24 1014.18 1014.16 1014.38 1014.59 1014.69 1014.74 1014.70 1014.70 1014.66 1014.54 1014.36 1014.29 1014.25 1014.24 1014.38 1014.60 1014.69 1014.82 1014.92
1012.24 1013.07 1013.93 1014.02 1013.36 1012.92 1012.48 1011.94 1011.69 1011.83 1012.03 1012.31 1012.87 1013.76 1014.49 1014.35 1014.40 1014.31 1014.17 1014.11 1014.06 1014.25 1014.33 1014.59 1014.40 1014.39 1014.30 1014.12 1013.92 1013.73 1013.64 1013.74 1014.07 1014.26 1014.25 1014.27 1014.32 1014.23 1014.31 1014.13 1013.96 1013.98 1013.89 1013.89 1014.10 1014.36 1014.47 1014.68 1014.86
1011.90 1013.06 1013.47 1013.19 1012.77 1012.70 1012.21 1011.63 1011.66 1012.01 1012.05 1012.10 1012.51 1013.91 1014.37 1014.68 1014.54 1014.49 1014.44 1014.44 1014.52 1014.56 1014.67 1014.63 1014.34 1014.27 1014.17 1013.97 1013.70 1013.63 1013.21 1013.44 1013.61 1013.74 1013.66 1013.95 1013.92 1013.81 1013.85 1013.70 1013.54 1013.56 1013.57 1013.56 1013.85 1014.09 1014.31 1014.44 1014.78
1011.26 1012.39 1012.81 1012.56 1012.64 1012.26 1011.62 1011.60 1011.60 1011.68 1012.07 1011.90 1012.38 1013.71 1014.31 1014.68 1014.68 1014.43 1014.49 1014.73 1014.69 1014.76 1014.48 1014.46 1014.51 1014.49 1014.34 1014.20 1013.80 1013.76 1013.62 1013.57 1013.54 1013.33 1013.21 1013.28 1013.27 1013.30 1013.37 1013.25 1013.26 1013.28 1013.16 1013.12 1013.42 1013.78 1014.07 1014.32 1014.65
1010.54 1011.89 1012.06 1011.91 1012.04 1011.73 1011.65 1011.54 1011.34 1011.35 1011.91 1012.40 1012.87 1013.46 1014.10 1014.63 1014.46 1014.62 1015.03 1015.17 1014.98 1014.84 1014.68 1014.57 1014.66 1014.54 1014.42 1014.13 1014.03 1014.09 1013.91 1013.79 1013.62 1013.41 1013.20 1012.96 1013.22 1013.18 1013.18 1013.10 1013.00 1012.88 1012.84 1012.81 1013.19 1013.65 1013.92 1014.20 1014.60
1010.43 1011.32 1010.75 1010.55 1010.82 1011.05 1011.13 1011.09 1011.22 1011.69 1012.46 1013.35 1013.60 1014.09 1014.42 1014.58 1014.83 1015.20 1015.56 1015.66 1015.36 1015.14 1014.79 1014.89 1014.82 1014.71 1014.49 1014.16 1014.29 1014.19 1013.88 1013.66 1013.41 1013.26 1013.16 1013.19 1013.09 1012.97 1012.88 1012.82 1012.74 1012.47 1012.60 1012.78 1013.03 1013.48 1013.79 1014.07 1014.67
1010.01 1010.25 1010.33 1009.98 1009.98 1010.32 1010.73 1011.07 1011.11 1012.00 1013.11 1013.40 1013.89 1014.40 1014.66 1014.78 1015.12 1015.45 1015.70 1015.61 1015.51 1015.17 1015.03 1015.00 1015.01 1014.76 1014.59 1014.48 1014.38 1014.18 1013.81 1013.39 1013.18 1013.10 1012.96 1012.92 1012.70 1012.65 1012.72 1012.70 1012.64 1012.48 1012.32 1012.69 1012.97 1013.40 1013.81 1014.11 1014.68
1009.75 1009.34 1009.41 1009.50 1009.49 1010.06 1010.51 1010.66 1011.22 1011.81 1012.57 1013.07 1013.48 1014.05 1014.54 1014.97 1015.44 1015.69 1015.78 1015.68 1015.50 1015.34 1015.18 1015.07 1014.96 1014.76 1014.52 1014.39 1014.33 1014.08 1013.71 1013.27 1013.08 1013.02 1012.80 1012.68 1012.58 1012.48 1012.62 1012.66 1012.48 1012.46 1012.51 1012.84 1013.01 1013.33 1013.72 1014.20 1014.47
1009.06 1009.35 1009.46 1009.32 1009.59 1009.84 1010.27 1010.90 1011.40 1012.11 1012.43 1012.86 1013.43 1014.13 1014.64 1015.22 1015.51 1015.63 1015.65 1015.49 1015.64 1015.52 1015.39 1015.18 1015.05 1014.73 1014.44 1014.34 1014.15 1013.92 1013.48 1013.10 1013.00 1012.81 1012.62 1012.48 1012.47 1012.62 1012.62 1012.48 1012.34 1012.33 1012.51 1012.74 1012.89 1013.18 1013.86 1014.26 1014.66
1008.72 1009.03 1009.34 1009.34 1009.52 1009.77 1010.26 1010.95 1011.25 1012.41 1012.20 1012.76 1013.57 1014.19 1014.74 1015.15 1015.38 1015.46 1015.59 1015.72 1015.73 1015.68 1015.54 1015.18 1015.02 1014.68 1014.46 1014.47 1014.22 1013.82 1013.36 1013.06 1012.81 1012.60 1012.47 1012.31 1012.39 1012.51 1012.40 1012.35 1012.40 1012.36 1012.48 1012.63 1012.79 1013.28 1014.00 1014.53 1014.86
1008.71 1009.34 1009.54 1009.43 1009.43 1009.81 1010.27 1011.16 1011.25 1011.62 1012.10 1012.89 1013.79 1014.27 1014.75 1015.22 1015.20 1015.28 1015.40 1015.78 1015.82 1015.70 1015.50 1015.10 1014.92 1014.73 1014.63 1014.47 1014.02 1013.60 1013.22 1012.82 1012.62 1012.55 1012.34 1012.18 1012.09 1012.04 1012.08 1011.99 1012.08 1012.17 1012.36 1012.64 1013.05 1013.53 1014.24 1014.76 1015.23
1009.00 1009.58 1010.01 1009.55 1009.37 1009.73 1010.45 1011.11 1011.24 1011.52 1012.05 1013.03 1013.84 1014.34 1014.75 1015.22 1015.07 1015.13 1015.26 1015.69 1015.81 1015.66 1015.50 1015.11 1014.89 1014.92 1014.69 1014.44 1014.04 1013.65 1013.19 1012.84 1012.68 1012.43 1012.26 1012.12 1011.85 1011.68 1011.67 1011.85 1012.05 1011.79 1012.19 1012.99 1013.40 1013.96 1014.51 1015.04 1015.76
1009.73 1009.98 1010.05 1009.70 1009.38 1009.94 1010.50 1011.25 1010.90 1011.28 1011.94 1012.90 1013.64 1014.29 1014.88 1015.20 1015.09 1014.99 1015.21 1015.61 1015.75 1015.64 1015.44 1015.20 1014.99 1014.98 1014.78 1014.53 1014.13 1013.68 1013.25 1012.86 1012.54 1012.29 1012.19 1011.84 1011.57 1011.60 1011.62 1011.78 1012.01 1011.91 1013.11 1013.38 1013.72 1014.30 1014.85 1015.46 1016.20
1010.36 1010.39 1009.99 1009.78 1009.48 1009.79 1010.50 1010.79 1011.34 1011.51 1011.75 1012.71 1013.47 1014.27 1014.94 1015.24 1015.13 1014.83 1015.18 1015.55 1015.68 1015.60 1015.43 1015.23 1015.04 1014.98 1014.80 1014.63 1014.28 1013.88 1013.53 1013.08 1012.62 1012.44 1012.14 1011.86 1011.90 1012.14 1011.73 1012.46 1012.63 1012.89 1013.45 1013.81 1014.16 1014.48 1015.39 1015.66 1016.39
1009.95 1010.03 1009.88 1009.46 1009.32 1009.61 1010.14 1010.52 1011.17 1011.45 1012.08 1012.76 1013.59 1014.30 1014.95 1015.28 1015.04 1014.81 1015.20 1015.52 1015.65 1015.66 1015.50 1015.20 1015.15 1015.00 1014.84 1014.69 1014.63 1014.32 1014.05 1013.58 1013.11 1012.82 1012.45 1012.13 1012.57 1012.50 1012.49 1013.02 1012.70 1012.86 1013.72 1014.07 1014.44 1015.08 1015.53 1016.18 1016.86
1009.58 1009.73 1009.35 1008.97 1008.63 1009.50 1009.97 1010.47 1010.79 1011.26 1011.29 1012.07 1013.20 1014.24 1014.70 1015.15 1015.15 1015.00 1015.37 1015.49 1015.70 1015.76 1015.68 1015.30 1015.22 1015.02 1014.84 1014.70 1014.51 1014.44 1014.23 1013.93 1013.65 1013.27 1012.93 1012.81 1012.72 1013.01 1013.05 1013.31 1013.70 1013.93 1014.28 1014.77 1015.06 1015.45 1015.99 1016.67 1017.04
1009.08 1009.23 1008.99 1009.29 1009.24 1009.69 1009.94 1010.74 1010.77 1010.90 1011.52 1012.26 1013.15 1013.72 1014.45 1014.91 1015.05 1015.21 1015.49 1015.60 1015.82 1015.90 1015.72 1015.41 1015.26 1015.03 1014.87 1014.73 1014.46 1014.43 1014.34 1014.21 1014.00 1013.81 1013.74 1013.69 1013.46 1013.64 1013.61 1013.53 1014.01 1014.41 1014.77 1015.18 1015.66 1015.92 1016.05 1016.56 1017.14
1008.68 1008.47 1008.58 1009.17 1009.68 1010.33 1010.14 1010.73 1010.33 1010.54 1011.38 1012.15 1013.08 1013.78 1014.19 1014.71 1014.87 1015.08 1015.48 1015.66 1015.79 1015.87 1015.81 1015.40 1015.24 1015.09 1014.92 1014.80 1014.75 1014.85 1014.84 1014.93 1014.69 1014.63 1014.45 1014.44 1013.92 1014.01 1014.06 1014.20 1014.30 1014.84 1015.17 1015.65 1015.94 1016.24 1016.47 1016.81 1017.48
1007.93 1007.96 1008.45 1009.03 1009.96 1010.58 1010.62 1011.04 1010.31 1010.46 1011.57 1012.06 1012.69 1013.38 1013.90 1014.27 1014.52 1014.86 1015.32 1015.44 1015.51 1015.69 1015.88 1015.56 1015.35 1015.17 1015.18 1014.96 1014.90 1015.10 1015.26 1015.08 1015.09 1014.86 1014.71 1014.92 1014.98 1013.85 1014.41 1014.57 1014.60 1015.01 1015.52 1015.81 1016.05 1016.58 1016.82 1017.06 1017.42
1006.83 1007.95 1008.80 1009.91 1011.10 1011.62 1011.01 1011.01 1010.43 1010.42 1009.94 1011.26 1012.16 1012.87 1013.58 1014.13 1014.44 1014.66 1014.99 1015.25 1015.48 1015.72 1015.88 1015.75 1015.59 1015.52 1015.24 1015.13 1015.19 1015.27 1015.51 1015.60 1015.47 1015.57 1015.39 1015.40 1015.20 1015.27 1014.91 1014.80 1014.95 1015.04 1015.56 1015.89 1016.24 1016.51 1016.68 1017.06 1017.33
1006.89 1008.53 1010.17 1011.37 1012.04 1011.95 1010.67 1010.80 1009.31 1008.61 1008.79 1009.46 1010.91 1012.16 1013.15 1013.66 1014.23 1014.66 1015.16 1015.37 1015.57 1015.76 1015.94 1015.94 1015.86 1015.87 1015.56 1015.28 1015.40 1015.54 1015.65 1015.62 1015.74 1015.91 1015.79 1015.55 1015.42 1015.32 1015.38 1015.14 1015.34 1015.57 1015.59 1015.80 1016.20 1016.82 1017.19 1017.39 1017.77
1006.83 1008.43 1010.27 1011.38 1012.15 1011.64 1010.64 1010.06 1008.56 1007.50 1007.51 1008.37 1009.71 1011.12 1012.64 1013.57 1013.97 1014.43 1014.79 1015.00 1015.39 1015.60 1015.80 1015.98 1016.05 1016.09 1015.84 1015.69 1015.68 1015.55 1015.61 1015.84 1015.81 1015.73 1015.91 1015.93 1015.73 1015.60 1015.85 1015.59 1015.40 1015.56 1015.77 1016.10 1016.57 1016.89 1016.97 1017.69 1018.03
1006.61 1007.99 1008.55 1010.52 1011.53 1011.78 1010.88 1009.45 1008.36 1007.89 1008.01 1008.99 1010.30 1011.48 1012.40 1013.13 1013.69 1014.13 1014.45 1014.69 1015.21 1015.40 1015.67 1015.96 1016.18 1016.25 1016.07 1015.95 1015.95 1015.97 1015.95 1016.00 1016.19 1016.12 1015.97 1016.09 1015.87 1015.83 1015.93 1016.18 1016.31 1016.23 1016.07 1016.14 1016.35 1016.94 1017.41 1017.86 1018.23
1005.25 1006.68 1008.88 1010.53 1011.75 1011.91 1010.95 1009.94 1008.92 1008.46 1008.57 1009.46 1010.45 1011.20 1012.03 1012.86 1013.41 1013.80 1014.16 1014.55 1014.87 1015.04 1015.49 1015.87 1016.03 1016.11 1016.16 1016.08 1016.04 1016.13 1016.21 1016.26 1016.38 1016.43 1016.43 1016.38 1016.30 1016.24 1016.32 1016.44 1016.49 1016.65 1016.74 1016.76 1017.08 1017.56 1017.89 1018.17 1018.65
1006.23 1007.37 1008.93 1010.25 1011.09 1011.69 1011.03 1009.99 1008.04 1007.51 1008.01 1008.69 1009.67 1010.58 1011.17 1012.17 1012.84 1013.34 1013.77 1014.25 1014.56 1014.90 1015.24 1015.67 1016.03 1016.09 1016.26 1016.14 1016.22 1016.33 1016.45 1016.54 1016.64 1016.81 1016.91 1016.82 1016.84 1016.81 1016.91 1017.13 1017.23 1017.41 1017.60 1017.65 1018.00 1018.37 1018.52 1018.98 1019.36
1006.06 1006.95 1008.29 1010.34 1010.97 1011.44 1011.13 1009.19 1006.99 1006.77 1007.08 1007.57 1008.72 1009.72 1010.78 1011.35 1012.16 1012.86 1013.38 1013.97 1014.45 1014.85 1015.08 1015.54 1015.87 1015.96 1016.12 1016.07 1016.25 1016.46 1016.60 1016.72 1016.87 1017.00 1017.10 1017.16 1017.29 1017.43 1017.58 1017.67 1017.85 1018.13 1018.34 1018.50 1018.74 1019.25 1019.63 1019.89 1020.17
Wind_Speed
6 4 2 3 4 5 1 1 4 2 1 2 2 7 6 2 2 5 4 2 7 7 7 11 12 12 11 11 9 9 8 6 5 6 7 7 7 6 6 9 10 11 10 10 10 9 7 6 6
4 2 3 2 4 4 5 3 7 7 5 2 8 6 3 1 4 4 1 2 7 10 7 7 14 14 15 13 10 9 8 7 7 7 6 5 7 8 9 8 10 12 11 11 12 10 9 7 7
3 1 3 4 3 5 6 5 6 5 5 4 2 2 5 2 3 4 4 2 4 7 10 10 17 16 15 11 10 9 9 9 9 8 7 7 7 7 10 11 11 13 14 13 13 12 10 9 8
4 3 4 3 4 3 7 7 8 6 2 2 5 6 5 5 3 5 6 2 4 8 11 13 15 13 11 11 10 9 10 11 11 11 11 10 9 9 10 13 14 13 16 14 14 13 11 10 8
1 3 1 3 5 4 4 5 10 7 7 4 6 3 3 1 7 8 7 5 4 5 5 7 13 12 10 9 10 11 13 14 13 12 12 12 12 12 13 13 16 15 16 16 15 14 13 11 9
3 3 2 3 3 3 3 5 7 6 5 5 7 6 3 3 5 6 3 7 7 7 4 4 2 9 9 10 12 14 14 15 13 15 14 13 13 13 16 15 16 16 16 17 16 15 13 10 8
6 4 6 8 8 2 5 2 3 5 4 2 8 5 4 2 3 5 7 8 6 6 7 3 2 5 7 8 11 7 9 12 9 11 14 15 14 15 16 16 15 17 17 16 16 15 13 11 8
5 4 5 5 4 3 3 3 6 9 2 3 5 6 4 3 3 7 8 7 7 5 2 3 4 5 6 6 7 7 7 6 10 14 15 15 14 15 16 16 14 14 18 17 18 16 14 12 9
4 1 3 3 5 4 4 4 0 1 7 4 3 5 8 6 6 9 7 7 6 4 3 2 5 5 4 2 4 6 7 6 7 8 10 9 3 4 9 11 12 14 17 17 16 14 14 12 10
4 2 7 5 7 7 8 7 6 4 6 5 6 7 7 7 8 9 7 6 6 6 6 5 4 4 4 3 3 3 3 3 3 3 4 4 5 5 6 10 13 14 15 15 14 14 14 10 3
4 6 5 5 6 9 6 5 5 9 3 3 6 7 4 7 8 9 5 3 4 5 4 3 2 2 3 4 3 2 2 2 2 3 2 3 3 3 3 3 3 3 10 3 7 6 3 6 5
8 6 6 4 5 5 5 6 4 3 6 9 7 8 6 9 8 7 6 6 7 6 3 1 2 2 3 2 2 3 3 2 2 3 4 1 1 2 3 3 4 3 2 4 4 3 5 7 9
5 5 6 6 8 5 7 3 7 7 9 8 10 8 9 8 7 5 4 5 6 5 5 5 3 3 3 3 3 3 3 2 3 3 4 2 2 1 2 3 4 4 3 4 4 7 7 9 10
5 7 9 5 6 6 5 3 6 5 8 8 10 9 8 9 7 4 4 5 5 4 5 3 4 4 4 2 3 4 3 3 3 3 3 3 2 3 3 3 4 4 4 3 4 8 8 9 10
6 6 3 6 7 5 5 0 5 9 9 9 9 8 8 8 7 6 3 5 4 2 3 4 2 4 3 3 4 4 4 2 2 2 4 5 4 4 4 3 3 2 4 9 8 10 9 9 9
4 6 3 6 7 2 9 9 7 10 10 9 10 8 8 6 7 5 6 5 3 1 3 4 3 3 3 4 4 4 4 3 3 2 3 4 5 4 1 2 4 5 9 6 9 10 9 10 10
4 4 6 4 8 6 5 7 5 10 9 9 10 8 8 6 5 5 6 6 3 0 1 3 5 3 2 3 3 4 5 3 2 1 2 3 2 5 5 5 8 11 6 6 9 9 10 10 10
6 5 5 6 6 6 6 8 8 10 10 10 10 8 8 7 6 5 7 6 4 1 2 0 4 2 1 2 3 3 3 3 3 3 3 4 5 10 3 5 8 8 6 6 8 11 8 10 11
6 6 9 4 6 7 11 7 13 11 7 10 8 9 8 8 7 5 6 5 4 1 3 4 4 3 3 2 2 3 3 3 3 4 5 5 11 7 3 5 7 5 7 8 9 9 12 9 11
7 9 12 7 8 8 8 13 9 11 13 14 13 9 10 6 6 5 6 4 3 1 0 3 3 2 2 1 2 1 1 2 2 3 5 6 10 7 5 9 7 8 8 9 8 9 7 8 5
7 8 11 6 1 6 4 6 5 7 2 9 8 9 8 11 9 7 7 5 4 2 2 2 2 2 1 4 3 2 2 3 4 4 4 5 7 4 3 5 7 7 6 6 8 7 9 6 5
9 8 14 6 7 7 5 6 5 6 8 11 11 10 10 9 6 7 7 5 4 5 2 4 3 2 1 3 4 4 2 2 2 2 4 6 8 5 2 3 6 6 5 7 4 4 4 9 5
11 7 8 7 7 4 3 4 7 7 5 9 11 12 10 10 10 10 9 8 6 7 5 3 3 1 3 4 4 4 4 2 3 4 6 7 5 6 4 4 5 5 3 7 8 5 5 3 3
8 4 6 6 4 1 7 5 5 7 16 7 10 12 13 10 9 9 8 7 6 3 6 4 5 3 5 6 7 7 6 4 4 5 4 3 3 3 4 8 6 5 4 5 7 5 5 4 4
5 7 2 5 5 7 1 3 11 12 10 18 19 15 13 12 9 9 9 7 6 6 7 5 5 2 5 7 8 7 6 6 6 5 4 5 3 5 4 5 6 5 5 5 5 5 5 5 4
7 10 8 8 4 10 6 5 9 6 13 16 19 17 13 10 9 11 10 8 8 8 7 6 6 4 6 7 6 6 7 4 4 5 4 4 3 3 7 5 3 5 6 6 6 4 4 6 5
5 4 10 6 3 1 4 6 7 2 9 12 14 15 15 12 12 12 9 8 8 8 8 8 7 5 6 7 6 6 6 7 5 5 4 3 4 4 7 7 6 6 6 6 8 6 6 6 5
12 6 3 3 5 5 5 4 7 3 9 10 13 17 14 10 12 10 9 8 6 7 6 7 8 8 7 6 6 5 6 6 6 6 5 6 5 6 7 7 7 7 7 8 9 8 7 10 5
1 3 5 4 6 3 3 7 8 12 14 18 17 17 17 15 14 11 9 8 8 6 7 8 7 8 6 6 5 6 5 6 6 6 4 4 5 7 7 7 7 7 8 8 11 10 11 11 9
2 8 8 6 4 2 4 9 6 8 9 15 18 17 16 16 14 11 11 9 8 8 7 8 7 8 7 6 6 6 6 5 6 5 5 4 5 5 6 6 7 7 7 8 10 10 8 10 9
Wind_Direction
145 166 103 51 48 64 349 8 149 158 56 187 183 116 134 93 128 207 246 258 143 166 183 190 181 184 188 186 189 191 207 219 241 266 278 272 267 264 273 270 254 251 254 256 250 256 261 276 261
158 129 31 73 93 92 276 213 158 178 194 104 118 121 66 91 94 110 93 308 111 181 180 174 187 193 198 200 199 210 218 227 236 251 256 273 276 271 264 263 264 251 245 248 245 241 248 254 254
157 155 85 110 126 184 187 219 177 193 154 130 121 81 104 125 72 121 225 203 40 143 171 186 195 200 207 208 214 226 228 230 234 234 228 257 271 285 283 261 261 254 245 236 241 240 235 241 254
146 32 11 101 220 246 174 190 174 148 326 201 121 77 52 314 101 163 211 211 239 172 178 193 197 206 216 219 227 240 246 238 233 231 236 242 256 268 280 279 251 258 245 231 234 231 230 234 249
40 87 54 249 228 174 225 199 152 163 174 164 122 105 101 309 159 182 215 235 269 102 181 216 201 211 222 238 250 254 255 247 238 237 240 249 258 266 274 277 254 246 248 233 228 222 225 224 241
27 90 48 257 225 184 232 207 128 147 156 148 89 115 165 225 164 223 16 62 99 123 107 74 116 214 231 248 253 255 253 247 245 251 246 256 260 272 275 269 251 243 246 229 224 220 217 218 222
148 93 233 247 160 150 216 195 132 125 109 92 137 113 170 186 161 93 72 74 79 67 102 146 68 356 332 307 290 303 313 243 262 263 250 253 257 265 265 263 249 246 238 220 220 215 215 212 220
123 107 317 14 146 207 226 175 134 132 151 132 112 161 167 182 139 86 61 48 55 66 69 40 43 49 38 25 46 13 353 319 286 274 263 264 254 251 260 257 248 252 223 209 213 213 210 213 204
102 168 258 154 141 209 190 155 168 152 126 47 78 128 126 153 81 58 38 17 17 3 344 60 58 37 360 101 19 16 349 340 308 288 278 256 274 271 260 253 243 242 221 209 208 209 212 207 200
118 110 181 199 166 180 190 159 157 132 82 72 73 65 86 80 72 69 57 22 9 338 350 63 52 28 10 31 20 346 322 287 287 275 265 262 250 241 239 238 247 234 215 207 208 212 212 199 168
266 189 219 172 160 151 140 152 172 122 87 156 158 140 118 89 69 69 51 14 330 306 19 34 45 24 23 22 4 321 302 286 298 300 270 252 247 235 252 269 264 247 211 189 200 199 181 131 151
218 195 160 185 77 124 155 151 92 113 168 161 151 142 121 89 82 83 53 4 345 2 17 352 2 354 22 25 336 299 284 286 288 282 287 311 257 238 251 244 236 219 191 185 173 147 127 126 133
106 142 115 129 107 118 103 122 139 139 153 158 114 109 109 105 107 91 55 2 7 25 350 349 326 16 354 1 309 284 284 304 300 306 303 299 355 295 266 264 224 211 173 165 146 134 127 123 122
150 136 152 152 147 158 129 181 106 229 162 145 129 122 123 119 125 98 45 13 23 20 352 343 21 33 20 348 314 315 316 300 283 287 290 308 297 266 295 255 210 212 159 149 126 134 117 116 117
155 122 159 186 171 178 125 197 204 174 171 152 147 133 122 127 118 127 100 67 62 349 314 1 87 51 32 345 324 329 312 308 281 298 299 283 261 263 283 246 194 156 143 106 118 110 117 108 99
163 88 162 257 150 183 112 257 221 183 165 157 155 142 130 148 126 141 109 111 96 18 8 343 22 59 19 8 342 344 340 14 11 342 286 271 270 248 5 140 112 64 113 123 120 126 117 106 113
345 223 230 292 191 141 142 247 232 180 167 159 160 151 145 143 123 107 121 133 149 258 351 4 28 75 33 9 341 352 352 14 342 360 332 290 317 51 69 86 103 108 123 122 124 117 123 123 116
251 278 256 219 217 156 193 231 196 201 169 168 162 156 150 153 165 139 122 136 168 255 346 62 42 48 311 342 341 355 358 351 6 13 12 30 73 60 48 83 105 109 112 110 125 116 125 121 120
229 246 263 267 230 145 213 215 198 201 189 159 160 154 159 162 185 161 115 132 139 324 16 46 100 358 25 348 331 344 339 325 352 19 18 45 85 122 98 105 94 99 104 120 119 116 124 116 124
246 258 271 306 227 154 207 242 194 193 204 172 163 166 162 158 179 146 138 128 104 92 261 45 93 25 326 300 275 223 308 313 307 359 43 35 100 99 103 119 117 104 110 107 108 122 119 123 139
255 242 261 223 94 318 134 295 182 215 105 149 169 159 155 166 177 145 148 162 128 131 104 109 128 176 26 6 35 33 14 354 5 23 31 28 88 101 48 91 116 112 109 95 112 116 123 101 105
247 234 251 214 143 209 151 256 290 199 169 164 170 170 171 170 171 145 157 163 168 172 185 96 99 160 244 57 64 62 76 74 337 60 66 46 66 71 77 95 128 110 126 111 106 123 129 135 160
231 220 232 183 169 153 234 91 266 128 184 175 185 182 177 179 169 156 165 170 205 155 171 146 106 59 69 71 110 87 70 14 42 49 70 78 103 151 235 153 126 109 116 135 144 145 139 148 127
209 189 36 56 89 18 239 165 265 189 201 171 190 178 176 177 176 156 172 169 194 162 157 176 124 32 50 71 81 114 98 86 55 46 42 49 73 91 98 100 140 155 135 141 148 167 151 130 95
99 75 303 340 356 227 236 117 245 213 192 180 179 179 176 175 163 153 168 177 187 189 180 182 136 95 89 77 82 93 96 93 92 79 68 58 48 70 72 66 92 137 132 138 136 151 147 165 138
177 152 160 206 202 264 26 269 268 284 196 177 178 168 163 168 161 161 177 176 188 202 183 178 156 146 111 107 90 85 90 84 72 79 75 59 62 81 112 75 78 91 86 106 135 143 134 121 132
207 162 190 156 199 101 246 292 341 233 107 134 152 159 173 170 168 170 177 182 179 200 183 169 159 154 133 127 116 95 96 89 91 75 58 58 48 64 73 105 103 90 79 86 89 97 102 115 113
174 174 107 16 190 248 274 243 231 238 160 148 163 177 174 169 169 172 172 186 184 185 164 165 166 156 160 138 127 120 114 105 92 86 73 67 57 64 70 66 68 69 68 64 78 80 76 86 70
94 81 70 112 140 186 246 258 213 197 173 171 181 184 173 175 176 174 173 184 176 178 159 169 165 152 158 148 138 126 122 114 107 103 99 82 76 74 69 81 79 75 66 59 79 76 80 81 79
128 156 122 115 302 305 206 266 250 220 161 171 180 180 181 175 172 172 171 171 167 184 148 167 178 163 167 163 146 137 132 123 110 107 119 124 92 74 94 90 86 77 76 72 78 78 75 88 81